Time,TemperatureF,DewpointF,PressureIn,WindDirection,WindDirectionDegrees,WindSpeedMPH,WindSpeedGustMPH,Humidity,HourlyPrecipIn,Conditions,Clouds,dailyrainin,SoftwareType,DateUTC
2013-04-17 00:03:00,68.0,54.0,-100.00,WSW,251,1.0,2.0,61,0.00,,,0.00,,2013-04-17 04:03:00,
2013-04-17 00:13:00,68.0,54.0,-100.00,WSW,251,1.0,2.0,61,0.00,,,0.00,,2013-04-17 04:13:00,
2013-04-17 00:23:00,69.0,54.0,-100.00,WSW,248,3.0,3.0,60,0.00,,,0.00,,2013-04-17 04:23:00,
2013-04-17 00:33:00,69.0,55.0,-100.00,WNW,299,2.0,3.0,62,0.00,,,0.00,,2013-04-17 04:33:00,
2013-04-17 00:42:00,69.0,55.0,-100.00,WNW,299,2.0,3.0,62,0.00,,,0.00,,2013-04-17 04:42:00,
2013-04-17 00:53:00,69.0,56.0,-100.00,WSW,239,2.0,3.0,64,0.00,,,0.00,,2013-04-17 04:53:00,
2013-04-17 01:03:00,68.0,56.0,-100.00,SW,223,1.0,1.0,64,0.00,,,0.00,,2013-04-17 05:03:00,
2013-04-17 01:12:00,68.0,56.0,-100.00,SW,223,1.0,1.0,64,0.00,,,0.00,,2013-04-17 05:12:00,
2013-04-17 01:22:00,68.0,57.0,-100.00,West,275,4.0,5.0,67,0.00,,,0.00,,2013-04-17 05:22:00,
2013-04-17 01:32:00,68.0,57.0,-100.00,West,275,4.0,5.0,67,0.00,,,0.00,,2013-04-17 05:32:00,
2013-04-17 01:43:00,68.0,57.0,-100.00,West,275,4.0,5.0,67,0.00,,,0.00,,2013-04-17 05:43:00,
2013-04-17 01:52:00,68.0,57.0,-100.00,West,275,4.0,5.0,67,0.00,,,0.00,,2013-04-17 05:52:00,
2013-04-17 02:02:00,68.0,56.0,-100.00,South,189,0.0,2.0,67,0.00,,,0.00,,2013-04-17 06:02:00,
2013-04-17 02:12:00,68.0,56.0,-100.00,South,189,0.0,2.0,67,0.00,,,0.00,,2013-04-17 06:12:00,
2013-04-17 02:22:00,67.0,56.0,-100.00,ESE,113,0.0,1.0,68,0.00,,,0.00,,2013-04-17 06:22:00,
2013-04-17 02:32:00,68.0,58.0,-100.00,WSW,253,3.0,4.0,69,0.00,,,0.00,,2013-04-17 06:32:00,
2013-04-17 02:42:00,68.0,58.0,-100.00,WSW,253,3.0,4.0,69,0.00,,,0.00,,2013-04-17 06:42:00,
2013-04-17 02:52:00,60.0,56.0,-100.00,ENE,65,13.0,17.0,87,0.23,,,0.09,,2013-04-17 06:52:00,
2013-04-17 03:02:00,60.0,56.0,-100.00,ENE,65,13.0,17.0,87,0.23,,,0.09,,2013-04-17 07:02:00,
2013-04-17 03:12:00,60.0,56.0,-100.00,ENE,65,13.0,17.0,87,0.23,,,0.09,,2013-04-17 07:12:00,
2013-04-17 03:22:00,58.0,57.0,-100.00,ENE,78,5.0,7.0,95,0.17,,,0.17,,2013-04-17 07:22:00,
2013-04-17 03:32:00,58.0,57.0,-100.00,East,95,5.0,7.0,96,0.33,,,0.24,,2013-04-17 07:32:00,
2013-04-17 03:42:00,58.0,57.0,-100.00,East,95,5.0,7.0,96,0.33,,,0.24,,2013-04-17 07:42:00,
2013-04-17 03:52:00,58.0,57.0,-100.00,ENE,71,6.0,7.0,96,0.17,,,0.27,,2013-04-17 07:52:00,
2013-04-17 04:02:00,58.0,57.0,-100.00,NW,322,3.0,5.0,96,0.20,,,0.34,,2013-04-17 08:02:00,
2013-04-17 04:12:00,58.0,57.0,-100.00,NW,322,3.0,5.0,96,0.20,,,0.34,,2013-04-17 08:12:00,
2013-04-17 04:22:00,58.0,57.0,-100.00,ENE,65,5.0,8.0,95,0.35,,,0.40,,2013-04-17 08:22:00,
2013-04-17 04:32:00,58.0,57.0,-100.00,NNE,24,2.0,4.0,95,0.11,,,0.45,,2013-04-17 08:32:00,
2013-04-17 04:42:00,58.0,57.0,-100.00,NNE,24,2.0,4.0,95,0.11,,,0.45,,2013-04-17 08:42:00,
2013-04-17 04:52:00,58.0,57.0,-100.00,NNE,24,2.0,4.0,95,0.11,,,0.45,,2013-04-17 08:52:00,
2013-04-17 05:02:00,58.0,56.0,-100.00,NNE,24,6.0,7.0,94,0.60,,,0.55,,2013-04-17 09:02:00,
2013-04-17 05:12:00,58.0,56.0,-100.00,NNE,24,6.0,7.0,94,0.60,,,0.55,,2013-04-17 09:12:00,
2013-04-17 05:22:00,58.0,56.0,-100.00,NNE,24,6.0,7.0,94,0.60,,,0.55,,2013-04-17 09:22:00,
2013-04-17 05:33:00,57.0,57.0,-100.00,NNW,328,4.0,7.0,98,0.00,,,0.69,,2013-04-17 09:33:00,
2013-04-17 05:42:00,57.0,57.0,-100.00,NNW,328,4.0,7.0,98,0.00,,,0.69,,2013-04-17 09:42:00,
2013-04-17 05:53:00,57.0,57.0,-100.00,NNE,28,3.0,4.0,98,0.00,,,0.69,,2013-04-17 09:53:00,
2013-04-17 06:03:00,58.0,57.0,-100.00,SSE,152,1.0,5.0,98,0.00,,,0.69,,2013-04-17 10:03:00,
2013-04-17 06:12:00,58.0,57.0,-100.00,SSE,152,1.0,5.0,98,0.00,,,0.69,,2013-04-17 10:12:00,
2013-04-17 06:23:00,58.0,57.0,-100.00,NE,49,2.0,3.0,98,0.00,,,0.70,,2013-04-17 10:23:00,
2013-04-17 06:32:00,58.0,57.0,-100.00,North,360,2.0,4.0,98,0.00,,,0.70,,2013-04-17 10:32:00,
2013-04-17 06:43:00,58.0,57.0,-100.00,North,360,2.0,4.0,98,0.00,,,0.70,,2013-04-17 10:43:00,
2013-04-17 06:53:00,58.0,57.0,-100.00,East,92,1.0,2.0,96,0.00,,,0.70,,2013-04-17 10:53:00,
2013-04-17 07:02:00,58.0,57.0,-100.00,NNW,328,2.0,3.0,97,0.00,,,0.70,,2013-04-17 11:02:00,
2013-04-17 07:12:00,58.0,57.0,-100.00,SW,234,2.0,4.0,97,0.00,,,0.70,,2013-04-17 11:12:00,
2013-04-17 07:22:00,58.0,57.0,-100.00,SW,234,2.0,4.0,97,0.00,,,0.70,,2013-04-17 11:22:00,
2013-04-17 07:32:00,58.0,57.0,-100.00,WNW,301,2.0,2.0,98,0.00,,,0.70,,2013-04-17 11:32:00,
2013-04-17 07:42:00,58.0,57.0,-100.00,WNW,301,2.0,2.0,98,0.00,,,0.70,,2013-04-17 11:42:00,
2013-04-17 07:52:00,58.0,57.0,-100.00,SSE,167,1.0,2.0,98,0.00,,,0.70,,2013-04-17 11:52:00,
2013-04-17 08:03:00,58.0,57.0,-100.00,SW,216,1.0,2.0,98,0.31,,,0.74,,2013-04-17 12:03:00,
2013-04-17 08:12:00,58.0,57.0,-100.00,SW,216,1.0,2.0,98,0.31,,,0.74,,2013-04-17 12:12:00,
2013-04-17 08:22:00,57.0,57.0,-100.00,SE,136,1.0,2.0,98,0.20,,,0.83,,2013-04-17 12:22:00,
2013-04-17 08:32:00,58.0,57.0,-100.00,South,191,3.0,4.0,98,0.07,,,0.86,,2013-04-17 12:32:00,
2013-04-17 08:42:00,58.0,57.0,-100.00,South,191,3.0,4.0,98,0.07,,,0.86,,2013-04-17 12:42:00,
2013-04-17 08:52:00,58.0,57.0,-100.00,South,191,3.0,4.0,98,0.07,,,0.86,,2013-04-17 12:52:00,
2013-04-17 09:02:00,58.0,57.0,-100.00,SSE,158,1.0,2.0,99,0.03,,,0.95,,2013-04-17 13:02:00,
2013-04-17 09:12:00,58.0,57.0,-100.00,SSE,158,1.0,2.0,99,0.03,,,0.95,,2013-04-17 13:12:00,
2013-04-17 09:22:00,57.0,57.0,-100.00,WSW,237,1.0,6.0,99,0.21,,,0.98,,2013-04-17 13:22:00,
2013-04-17 09:32:00,58.0,57.0,-100.00,ENE,64,2.0,3.0,98,0.04,,,1.02,,2013-04-17 13:32:00,
2013-04-17 09:42:00,58.0,57.0,-100.00,ENE,64,2.0,3.0,98,0.04,,,1.02,,2013-04-17 13:42:00,
2013-04-17 09:52:00,58.0,57.0,-100.00,NW,316,3.0,4.0,98,0.10,,,1.03,,2013-04-17 13:52:00,
2013-04-17 10:02:00,58.0,57.0,-100.00,NNE,23,3.0,5.0,98,0.00,,,1.04,,2013-04-17 14:02:00,
2013-04-17 10:12:00,58.0,58.0,-100.00,NE,41,4.0,6.0,98,0.00,,,1.04,,2013-04-17 14:12:00,
2013-04-17 10:22:00,58.0,58.0,-100.00,NE,41,4.0,6.0,98,0.00,,,1.04,,2013-04-17 14:22:00,
2013-04-17 10:32:00,58.0,57.0,-100.00,ENE,72,5.0,7.0,97,0.00,,,1.04,,2013-04-17 14:32:00,
2013-04-17 10:42:00,58.0,57.0,-100.00,ENE,72,5.0,7.0,97,0.00,,,1.04,,2013-04-17 14:42:00,
2013-04-17 10:52:00,58.0,57.0,-100.00,ENE,62,9.0,12.0,97,0.06,,,1.04,,2013-04-17 14:52:00,
2013-04-17 11:02:00,58.0,57.0,-100.00,East,83,5.0,10.0,97,0.43,,,1.11,,2013-04-17 15:02:00,
2013-04-17 11:12:00,58.0,57.0,-100.00,East,83,5.0,10.0,97,0.43,,,1.11,,2013-04-17 15:12:00,
2013-04-17 11:22:00,58.0,57.0,-100.00,NE,42,6.0,10.0,97,0.11,,,1.18,,2013-04-17 15:22:00,
2013-04-17 11:33:00,58.0,57.0,-100.00,NW,325,2.0,3.0,97,0.17,,,1.20,,2013-04-17 15:33:00,
2013-04-17 11:43:00,58.0,57.0,-100.00,NW,325,2.0,3.0,97,0.17,,,1.20,,2013-04-17 15:43:00,
2013-04-17 11:53:00,58.0,57.0,-100.00,ENE,68,6.0,11.0,97,0.26,,,1.28,,2013-04-17 15:53:00,
2013-04-17 12:03:00,58.0,57.0,-100.00,East,86,2.0,4.0,97,0.28,,,1.34,,2013-04-17 16:03:00,
2013-04-17 12:13:00,58.0,57.0,-100.00,East,86,2.0,4.0,97,0.28,,,1.34,,2013-04-17 16:13:00,
2013-04-17 12:23:00,58.0,57.0,-100.00,NNE,31,4.0,7.0,97,0.34,,,1.49,,2013-04-17 16:23:00,
2013-04-17 12:32:00,58.0,57.0,-100.00,NNE,31,4.0,7.0,97,0.34,,,1.49,,2013-04-17 16:32:00,
2013-04-17 12:42:00,58.0,57.0,-100.00,NNE,31,4.0,7.0,97,0.34,,,1.49,,2013-04-17 16:42:00,
2013-04-17 12:52:00,58.0,57.0,-100.00,NNE,31,4.0,7.0,97,0.34,,,1.49,,2013-04-17 16:52:00,
2013-04-17 13:02:00,57.0,56.0,-100.00,East,97,2.0,3.0,96,0.20,,,1.65,,2013-04-17 17:02:00,
2013-04-17 13:12:00,57.0,56.0,-100.00,East,97,2.0,3.0,96,0.20,,,1.65,,2013-04-17 17:12:00,
2013-04-17 13:22:00,57.0,56.0,-100.00,East,89,1.0,1.0,97,0.48,,,1.71,,2013-04-17 17:22:00,
2013-04-17 13:33:00,58.0,57.0,-100.00,SSE,155,1.0,2.0,98,0.17,,,1.77,,2013-04-17 17:33:00,
2013-04-17 13:42:00,58.0,57.0,-100.00,SSE,155,1.0,2.0,98,0.17,,,1.77,,2013-04-17 17:42:00,
2013-04-17 13:52:00,58.0,57.0,-100.00,SSE,155,1.0,2.0,98,0.17,,,1.77,,2013-04-17 17:52:00,
2013-04-17 14:02:00,58.0,57.0,-100.00,SSW,199,1.0,2.0,98,0.13,,,1.85,,2013-04-17 18:02:00,
2013-04-17 14:12:00,58.0,57.0,-100.00,SSW,199,1.0,2.0,98,0.13,,,1.85,,2013-04-17 18:12:00,
2013-04-17 14:22:00,57.0,56.0,-100.00,WSW,243,6.0,9.0,96,0.00,,,1.86,,2013-04-17 18:22:00,
2013-04-17 14:32:00,59.0,56.0,-100.00,South,171,1.0,2.0,90,0.00,,,1.86,,2013-04-17 18:32:00,
2013-04-17 14:42:00,59.0,56.0,-100.00,South,171,1.0,2.0,90,0.00,,,1.86,,2013-04-17 18:42:00,
2013-04-17 14:52:00,60.0,54.0,-100.00,SW,223,7.0,10.0,82,0.00,,,1.87,,2013-04-17 18:52:00,
2013-04-17 15:02:00,60.0,56.0,-100.00,SW,223,6.0,10.0,87,0.00,,,1.87,,2013-04-17 19:02:00,
2013-04-17 15:12:00,60.0,56.0,-100.00,SW,223,6.0,10.0,87,0.00,,,1.87,,2013-04-17 19:12:00,
2013-04-17 15:22:00,60.0,56.0,-100.00,SW,223,6.0,10.0,87,0.00,,,1.87,,2013-04-17 19:22:00,
2013-04-17 15:32:00,64.0,58.0,-100.00,SSW,202,5.0,8.0,81,0.00,,,1.87,,2013-04-17 19:32:00,
2013-04-17 15:42:00,64.0,58.0,-100.00,SSW,202,5.0,8.0,81,0.00,,,1.87,,2013-04-17 19:42:00,
2013-04-17 15:52:00,65.0,58.0,-100.00,SW,227,5.0,7.0,77,0.00,,,1.87,,2013-04-17 19:52:00,
2013-04-17 16:03:00,65.0,56.0,-100.00,SW,215,4.0,6.0,74,0.00,,,1.87,,2013-04-17 20:03:00,
2013-04-17 16:12:00,65.0,56.0,-100.00,SW,215,4.0,6.0,74,0.00,,,1.87,,2013-04-17 20:12:00,
2013-04-17 16:22:00,67.0,59.0,-100.00,SSW,198,4.0,7.0,75,0.00,,,1.87,,2013-04-17 20:22:00,
2013-04-17 16:33:00,68.0,59.0,-100.00,SSE,162,4.0,5.0,74,0.00,,,1.87,,2013-04-17 20:33:00,
2013-04-17 16:42:00,68.0,59.0,-100.00,SSE,162,4.0,5.0,74,0.00,,,1.87,,2013-04-17 20:42:00,
2013-04-17 16:52:00,68.0,59.0,-100.00,SSE,162,4.0,5.0,74,0.00,,,1.87,,2013-04-17 20:52:00,
2013-04-17 17:03:00,67.0,58.0,-100.00,South,184,2.0,4.0,73,0.00,,,1.87,,2013-04-17 21:03:00,
2013-04-17 17:12:00,68.0,56.0,-100.00,SSE,162,2.0,4.0,66,0.00,,,1.87,,2013-04-17 21:12:00,
2013-04-17 17:22:00,68.0,56.0,-100.00,SSE,162,2.0,4.0,66,0.00,,,1.87,,2013-04-17 21:22:00,
2013-04-17 17:33:00,69.0,57.0,-100.00,South,179,2.0,4.0,66,0.00,,,1.87,,2013-04-17 21:33:00,
2013-04-17 17:43:00,68.0,57.0,-100.00,South,176,2.0,3.0,67,0.00,,,1.87,,2013-04-17 21:43:00,
2013-04-17 17:53:00,68.0,57.0,-100.00,South,176,2.0,3.0,67,0.00,,,1.87,,2013-04-17 21:53:00,
2013-04-17 18:02:00,68.0,57.0,-100.00,SSW,193,2.0,4.0,69,0.00,,,1.87,,2013-04-17 22:02:00,
2013-04-17 18:13:00,68.0,57.0,-100.00,SSW,193,2.0,4.0,69,0.00,,,1.87,,2013-04-17 22:13:00,
2013-04-17 18:22:00,68.0,57.0,-100.00,SSW,193,2.0,4.0,69,0.00,,,1.87,,2013-04-17 22:22:00,
2013-04-17 18:33:00,67.0,58.0,-100.00,SSW,198,1.0,2.0,71,0.00,,,1.87,,2013-04-17 22:33:00,
2013-04-17 18:43:00,67.0,58.0,-100.00,SSW,198,1.0,2.0,71,0.00,,,1.87,,2013-04-17 22:43:00,
2013-04-17 18:53:00,67.0,58.0,-100.00,SSW,198,1.0,2.0,71,0.00,,,1.87,,2013-04-17 22:53:00,
2013-04-17 19:02:00,68.0,58.0,-100.00,SSW,196,2.0,4.0,70,0.00,,,1.87,,2013-04-17 23:02:00,
2013-04-17 19:12:00,68.0,58.0,-100.00,SSW,196,2.0,4.0,70,0.00,,,1.87,,2013-04-17 23:12:00,
2013-04-17 19:22:00,68.0,56.0,-100.00,SSW,210,4.0,6.0,67,0.00,,,1.87,,2013-04-17 23:22:00,
2013-04-17 19:32:00,67.0,55.0,-100.00,SSW,205,2.0,5.0,65,0.00,,,1.87,,2013-04-17 23:32:00,
2013-04-17 19:42:00,67.0,55.0,-100.00,SSW,205,2.0,5.0,65,0.00,,,1.87,,2013-04-17 23:42:00,
2013-04-17 19:52:00,66.0,55.0,-100.00,SW,230,3.0,6.0,68,0.00,,,1.87,,2013-04-17 23:52:00,
2013-04-17 20:02:00,65.0,55.0,-100.00,WSW,247,7.0,9.0,70,0.00,,,1.87,,2013-04-18 00:02:00,
2013-04-17 20:12:00,65.0,55.0,-100.00,WSW,247,7.0,9.0,70,0.00,,,1.87,,2013-04-18 00:12:00,
2013-04-17 20:22:00,64.0,55.0,-100.00,WSW,248,6.0,8.0,71,0.00,,,1.87,,2013-04-18 00:22:00,
2013-04-17 20:32:00,64.0,54.0,-100.00,WSW,256,3.0,5.0,71,0.00,,,1.87,,2013-04-18 00:32:00,
2013-04-17 20:42:00,64.0,54.0,-100.00,WSW,256,3.0,5.0,71,0.00,,,1.87,,2013-04-18 00:42:00,
2013-04-17 20:52:00,63.0,55.0,-100.00,WSW,250,2.0,3.0,74,0.00,,,1.87,,2013-04-18 00:52:00,
2013-04-17 21:02:00,63.0,55.0,-100.00,WSW,250,2.0,3.0,74,0.00,,,1.87,,2013-04-18 01:02:00,
2013-04-17 21:12:00,63.0,55.0,-100.00,WSW,250,2.0,3.0,74,0.00,,,1.87,,2013-04-18 01:12:00,
2013-04-17 21:22:00,63.0,54.0,-100.00,West,265,4.0,6.0,72,0.00,,,1.87,,2013-04-18 01:22:00,
2013-04-17 21:32:00,63.0,54.0,-100.00,West,268,4.0,6.0,72,0.00,,,1.87,,2013-04-18 01:32:00,
2013-04-17 21:42:00,63.0,54.0,-100.00,West,268,4.0,6.0,72,0.00,,,1.87,,2013-04-18 01:42:00,
2013-04-17 21:52:00,62.0,54.0,-100.00,WSW,240,1.0,2.0,76,0.00,,,1.87,,2013-04-18 01:52:00,
2013-04-17 22:02:00,62.0,54.0,-100.00,WSW,240,1.0,2.0,76,0.00,,,1.87,,2013-04-18 02:02:00,
2013-04-17 22:12:00,62.0,54.0,-100.00,WSW,240,1.0,2.0,76,0.00,,,1.87,,2013-04-18 02:12:00,
2013-04-17 22:22:00,61.0,54.0,-100.00,NNE,28,2.0,2.0,77,0.00,,,1.87,,2013-04-18 02:22:00,
2013-04-17 22:32:00,62.0,53.0,-100.00,NNE,16,2.0,3.0,73,0.00,,,1.87,,2013-04-18 02:32:00,
2013-04-17 22:42:00,62.0,53.0,-100.00,NNE,16,2.0,3.0,73,0.00,,,1.87,,2013-04-18 02:42:00,
2013-04-17 22:52:00,62.0,53.0,-100.00,NNE,16,2.0,3.0,73,0.00,,,1.87,,2013-04-18 02:52:00,
2013-04-17 23:02:00,63.0,53.0,-100.00,SSE,162,0.0,1.0,69,0.00,,,1.87,,2013-04-18 03:02:00,
2013-04-17 23:12:00,63.0,53.0,-100.00,SSE,162,0.0,1.0,69,0.00,,,1.87,,2013-04-18 03:12:00,
2013-04-17 23:22:00,62.0,53.0,-100.00,NW,326,1.0,2.0,72,0.00,,,1.87,,2013-04-18 03:22:00,
2013-04-17 23:33:00,61.0,54.0,-100.00,West,280,1.0,2.0,75,0.00,,,1.87,,2013-04-18 03:33:00,
2013-04-17 23:43:00,61.0,54.0,-100.00,West,280,1.0,2.0,75,0.00,,,1.87,,2013-04-18 03:43:00,
2013-04-17 23:53:00,61.0,54.0,-100.00,NNW,335,2.0,5.0,76,0.00,,,1.87,,2013-04-18 03:53:00,